Location: Peterborough
(44.3091°N, 78.3197°W)
Time: 22:16:56
(UTC-04:00)

Vanguard 1 - Pass Details

Date: 20 April 2024
Orbit: 652 x 3825 km, 34.2° (Epoch: 29 May)

Event Time Altitude Azimuth Distance (km) Brightness Sun altitude
Rises 10:11:47 0° 274° (W) 6,671 13.9 39.6°
Reaches altitude 10° 10:17:18 10° 267° (W) 5,119 13.4 40.5°
Maximum altitude 10:28:42 35° 209° (SSW) 2,370 12.4 42.3°
Drops below altitude 10° 10:35:28 10° 145° (SE) 3,017 13.5 43.3°
Sets 10:37:52 0° 136° (SE) 3,703 13.8 43.7°
